Orbital Elements at Epoch 2459000.5 (2020-May-31.0) TDB
Reference: JPL 17 (heliocentric ecliptic J2000)
Element | Value | Uncertainty (1-sigma) | Units |
e | .02982326137213823 | 5.1729e-08 | |
a | 5.204517990402905 | 1.7552e-07 | au |
q | 5.049302290059123 | 4.0586e-07 | au |
i | 18.72778995121282 | 5.6312e-06 | deg |
node | 178.7086994655203 | 1.88e-05 | deg |
peri | 143.5286695147486 | 0.00013931 | deg |
M | 270.9129831538659 | 0.00014165 | deg |
tp | 2460073.701111291097 (2023-May-09.20111129) | 0.0017312 | TDB |
period | 4336.798040191203 11.87 | 0.00021939 6.007e-07 | d yr |
n | .08301055217782938 | 4.1992e-09 | deg/d |
Q | 5.359733690746687 | 1.8075e-07 | au |
|
| | Orbit Determination Parameters
Additional Information
|